Вернуться в каталог

FENGYUN 1C DEB

АктивенPO
NORAD 31910·DEBRIS·🇨🇳 China

Запущен May 10, 1999 с Taiyuan Satellite Launch Center

Loading…

Ближайшие Пролёты (ближайшие 24 часа)

TLE

УстаревающийSource: Space-Track

Эпоха: Sep 9, 2026, 06:16 UTC

1 31910U 99025CLM 26252.26133748  .00003332  00000-0  63862-3 0  9999
2 31910  97.6575 253.7961 0222403  35.0933 326.4687 14.49725696682863

Отслеживайте FENGYUN 1C DEB в реальном времени с AllMySat

Download on the App Store